Year,Month,Day,Hour,Minute,Value (Times are PST for temperature in C)
2017,07,06,00,00,17.30
2017,07,06,00,01,17.30
2017,07,06,00,02,17.30
2017,07,06,00,03,17.30
2017,07,06,00,04,17.30
2017,07,06,00,06,17.30
2017,07,06,00,07,17.30
2017,07,06,00,08,17.30
2017,07,06,00,09,17.30
2017,07,06,00,10,17.30
2017,07,06,00,11,17.30
2017,07,06,00,12,17.30
2017,07,06,00,13,17.30
2017,07,06,00,14,17.30
2017,07,06,00,15,17.30
2017,07,06,00,16,17.20
2017,07,06,00,17,17.20
2017,07,06,00,18,17.20
2017,07,06,00,19,17.20
2017,07,06,00,20,17.20
2017,07,06,00,21,17.10
2017,07,06,00,22,17.10
2017,07,06,00,23,17.10
2017,07,06,00,24,17.10
2017,07,06,00,25,17.00
2017,07,06,00,26,17.00
2017,07,06,00,27,17.00
2017,07,06,00,28,16.90
2017,07,06,00,29,16.90
2017,07,06,00,30,16.90
2017,07,06,00,31,16.90
2017,07,06,00,32,16.80
2017,07,06,00,33,16.80
2017,07,06,00,34,16.80
2017,07,06,00,35,16.70
2017,07,06,00,36,16.70
2017,07,06,00,37,16.70
2017,07,06,00,38,16.70
2017,07,06,00,39,16.70
2017,07,06,00,40,16.70
2017,07,06,00,41,16.70
2017,07,06,00,42,16.70
2017,07,06,00,43,16.70
2017,07,06,00,44,16.70
2017,07,06,00,45,16.70
2017,07,06,00,46,16.60
2017,07,06,00,47,16.60
2017,07,06,00,48,16.60
2017,07,06,00,49,16.60
2017,07,06,00,50,16.40
2017,07,06,00,51,16.40
2017,07,06,00,52,16.40
2017,07,06,00,53,16.40
2017,07,06,00,54,16.40
2017,07,06,00,55,16.30
2017,07,06,00,56,16.30
2017,07,06,00,57,16.30
2017,07,06,00,58,16.20
2017,07,06,00,59,16.20
2017,07,06,01,00,16.20
2017,07,06,01,01,16.10
2017,07,06,01,02,16.10
2017,07,06,01,03,16.10
2017,07,06,01,04,16.10
2017,07,06,01,05,16.10
2017,07,06,01,06,16.10
2017,07,06,01,07,16.10
2017,07,06,01,08,15.90
2017,07,06,01,09,15.90
2017,07,06,01,10,15.90
2017,07,06,01,11,15.90
2017,07,06,01,12,15.90
2017,07,06,01,13,15.80
2017,07,06,01,14,15.80
2017,07,06,01,15,15.80
2017,07,06,01,16,15.80
2017,07,06,01,17,15.80
2017,07,06,01,19,15.80
2017,07,06,01,21,15.80
2017,07,06,01,22,15.80
2017,07,06,01,23,15.80
2017,07,06,01,24,15.80
2017,07,06,01,26,15.70
2017,07,06,01,27,15.70
2017,07,06,01,28,15.70
2017,07,06,01,29,15.70
2017,07,06,01,31,15.60
2017,07,06,01,32,15.60
2017,07,06,01,33,15.60
2017,07,06,01,34,15.60
2017,07,06,01,36,15.50
2017,07,06,01,37,15.50
2017,07,06,01,38,15.40
2017,07,06,01,39,15.40
2017,07,06,01,41,15.40
2017,07,06,01,42,15.30
2017,07,06,01,43,15.30
2017,07,06,01,44,15.30
2017,07,06,01,46,15.20
2017,07,06,01,47,15.20
2017,07,06,01,48,15.20
2017,07,06,01,49,15.10
2017,07,06,01,51,15.10
2017,07,06,01,52,15.00
2017,07,06,01,53,15.00
2017,07,06,01,54,14.90
2017,07,06,01,56,14.90
2017,07,06,01,57,14.90
2017,07,06,01,58,14.80
2017,07,06,01,59,14.80
2017,07,06,02,01,14.80
2017,07,06,02,02,14.80
2017,07,06,02,03,14.80
2017,07,06,02,04,14.80
2017,07,06,02,06,14.80
2017,07,06,02,07,14.80
2017,07,06,02,08,14.80
2017,07,06,02,09,14.80
2017,07,06,02,11,14.80
2017,07,06,02,12,14.80
2017,07,06,02,13,14.80
2017,07,06,02,14,14.80
2017,07,06,02,16,14.80
2017,07,06,02,17,14.80
2017,07,06,02,18,14.80
2017,07,06,02,19,14.80
2017,07,06,02,21,14.80
2017,07,06,02,22,14.80
2017,07,06,02,23,14.80
2017,07,06,02,24,14.80
2017,07,06,02,26,14.80
2017,07,06,02,27,14.70
2017,07,06,02,28,14.70
2017,07,06,02,29,14.70
2017,07,06,02,31,14.60
2017,07,06,02,32,14.60
2017,07,06,02,33,14.50
2017,07,06,02,34,14.50
2017,07,06,02,36,14.50
2017,07,06,02,37,14.50
2017,07,06,02,38,14.40
2017,07,06,02,39,14.40
2017,07,06,02,41,14.40
2017,07,06,02,42,14.40
2017,07,06,02,43,14.40
2017,07,06,02,44,14.30
2017,07,06,02,45,14.30
2017,07,06,02,46,14.30
2017,07,06,02,47,14.30
2017,07,06,02,48,14.30
2017,07,06,02,49,14.30
2017,07,06,02,50,14.30
2017,07,06,02,51,14.30
2017,07,06,02,52,14.20
2017,07,06,02,53,14.20
2017,07,06,02,54,14.20
2017,07,06,02,55,14.20
2017,07,06,02,56,14.20
2017,07,06,02,57,14.20
2017,07,06,02,58,14.20
2017,07,06,02,59,14.20
2017,07,06,03,00,14.20
2017,07,06,03,01,14.20
2017,07,06,03,02,14.20
2017,07,06,03,03,14.20
2017,07,06,03,04,14.20
2017,07,06,03,05,14.20
2017,07,06,03,06,14.20
2017,07,06,03,07,14.20
2017,07,06,03,08,14.20
2017,07,06,03,09,14.20
2017,07,06,03,10,14.20
2017,07,06,03,11,14.20
2017,07,06,03,12,14.20
2017,07,06,03,13,14.20
2017,07,06,03,14,14.20
2017,07,06,03,15,14.20
2017,07,06,03,16,14.20
2017,07,06,03,17,14.20
2017,07,06,03,18,14.20
2017,07,06,03,19,14.30
2017,07,06,03,20,14.30
2017,07,06,03,21,14.30
2017,07,06,03,22,14.30
2017,07,06,03,23,14.30
2017,07,06,03,24,14.30
2017,07,06,03,25,14.30
2017,07,06,03,26,14.30
2017,07,06,03,27,14.30
2017,07,06,03,28,14.30
2017,07,06,03,29,14.30
2017,07,06,03,30,14.30
2017,07,06,03,31,14.30
2017,07,06,03,32,14.30
2017,07,06,03,33,14.30
2017,07,06,03,34,14.30
2017,07,06,03,35,14.30
2017,07,06,03,36,14.30
2017,07,06,03,37,14.30
2017,07,06,03,38,14.30
2017,07,06,03,39,14.30
2017,07,06,03,40,14.20
2017,07,06,03,41,14.20
2017,07,06,03,42,14.20
2017,07,06,03,43,14.20
2017,07,06,03,44,14.20
2017,07,06,03,45,14.20
2017,07,06,03,46,14.20
2017,07,06,03,47,14.20
2017,07,06,03,48,14.20
2017,07,06,03,49,14.20
2017,07,06,03,50,14.20
2017,07,06,03,51,14.20
2017,07,06,03,52,14.20
2017,07,06,03,53,14.20
2017,07,06,03,54,14.20
2017,07,06,03,55,14.20
2017,07,06,03,56,14.20
2017,07,06,03,57,14.20
2017,07,06,03,59,14.10
2017,07,06,04,00,14.10
2017,07,06,04,02,14.10
2017,07,06,04,03,14.10
2017,07,06,04,04,14.10
2017,07,06,04,06,14.10
2017,07,06,04,07,14.10
2017,07,06,04,08,14.10
2017,07,06,04,09,14.10
2017,07,06,04,11,14.10
2017,07,06,04,12,14.00
2017,07,06,04,13,14.00
2017,07,06,04,14,14.00
2017,07,06,04,16,14.00
2017,07,06,04,17,14.00
2017,07,06,04,18,14.00
2017,07,06,04,19,14.00
2017,07,06,04,21,14.00
2017,07,06,04,22,14.00
2017,07,06,04,23,14.00
2017,07,06,04,24,13.90
2017,07,06,04,26,13.90
2017,07,06,04,27,13.90
2017,07,06,04,28,13.90
2017,07,06,04,29,13.90
2017,07,06,04,31,13.90
2017,07,06,04,32,13.80
2017,07,06,04,33,13.80
2017,07,06,04,34,13.80
2017,07,06,04,36,13.80
2017,07,06,04,37,13.80
2017,07,06,04,38,13.80
2017,07,06,04,39,13.80
2017,07,06,04,41,13.80
2017,07,06,04,42,13.80
2017,07,06,04,43,13.80
2017,07,06,04,44,13.80
2017,07,06,04,46,13.80
2017,07,06,04,47,13.80
2017,07,06,04,48,13.70
2017,07,06,04,49,13.70
2017,07,06,04,51,13.70
2017,07,06,04,52,13.70
2017,07,06,04,53,13.70
2017,07,06,04,54,13.70
2017,07,06,04,56,13.60
2017,07,06,04,57,13.60
2017,07,06,04,58,13.60
2017,07,06,04,59,13.60
2017,07,06,05,01,13.50
2017,07,06,05,02,13.50
2017,07,06,05,03,13.50
2017,07,06,05,04,13.50
2017,07,06,05,06,13.50
2017,07,06,05,07,13.40
2017,07,06,05,08,13.40
2017,07,06,05,09,13.40
2017,07,06,05,11,13.40
2017,07,06,05,12,13.40
2017,07,06,05,13,13.40
2017,07,06,05,14,13.40
2017,07,06,05,16,13.30
2017,07,06,05,17,13.30
2017,07,06,05,18,13.30
2017,07,06,05,19,13.30
2017,07,06,05,21,13.30
2017,07,06,05,22,13.30
2017,07,06,05,23,13.30
2017,07,06,05,24,13.30
2017,07,06,05,26,13.30
2017,07,06,05,27,13.30
2017,07,06,05,28,13.30
2017,07,06,05,29,13.30
2017,07,06,05,30,13.30
2017,07,06,05,31,13.30
2017,07,06,05,32,13.30
2017,07,06,05,33,13.30
2017,07,06,05,34,13.30
2017,07,06,05,36,13.20
2017,07,06,05,37,13.20
2017,07,06,05,38,13.20
2017,07,06,05,39,13.20
2017,07,06,05,40,13.20
2017,07,06,05,41,13.20
2017,07,06,05,42,13.20
2017,07,06,05,43,13.20
2017,07,06,05,44,13.20
2017,07,06,05,45,13.20
2017,07,06,05,46,13.20
2017,07,06,05,47,13.20
2017,07,06,05,48,13.20
2017,07,06,05,49,13.20
2017,07,06,05,50,13.20
2017,07,06,05,51,13.20
2017,07,06,05,52,13.20
2017,07,06,05,53,13.20
2017,07,06,05,54,13.20
2017,07,06,05,55,13.20
2017,07,06,05,56,13.20
2017,07,06,05,57,13.20
2017,07,06,05,58,13.20
2017,07,06,05,59,13.20
2017,07,06,06,00,13.20
2017,07,06,06,01,13.20
2017,07,06,06,02,13.20
2017,07,06,06,03,13.20
2017,07,06,06,04,13.20
2017,07,06,06,05,13.20
2017,07,06,06,06,13.20
2017,07,06,06,07,13.20
2017,07,06,06,08,13.20
2017,07,06,06,09,13.20
2017,07,06,06,10,13.20
2017,07,06,06,11,13.20
2017,07,06,06,12,13.20
2017,07,06,06,13,13.20
2017,07,06,06,14,13.20
2017,07,06,06,15,13.20
2017,07,06,06,16,13.20
2017,07,06,06,17,13.20
2017,07,06,06,18,13.20
2017,07,06,06,19,13.20
2017,07,06,06,20,13.30
2017,07,06,06,21,13.30
2017,07,06,06,22,13.30
2017,07,06,06,23,13.30
2017,07,06,06,24,13.30
2017,07,06,06,25,13.30
2017,07,06,06,26,13.30
2017,07,06,06,27,13.30
2017,07,06,06,28,13.30
2017,07,06,06,29,13.30
2017,07,06,06,30,13.30
2017,07,06,06,31,13.30
2017,07,06,06,32,13.30
2017,07,06,06,33,13.30
2017,07,06,06,34,13.30
2017,07,06,06,35,13.30
2017,07,06,06,36,13.30
2017,07,06,06,37,13.30
2017,07,06,06,38,13.30
2017,07,06,06,39,13.30
2017,07,06,06,41,13.30
2017,07,06,06,42,13.30
2017,07,06,06,43,13.40
2017,07,06,06,44,13.40
2017,07,06,06,46,13.40
2017,07,06,06,47,13.40
2017,07,06,06,48,13.40
2017,07,06,06,49,13.40
2017,07,06,06,51,13.40
2017,07,06,06,52,13.40
2017,07,06,06,53,13.40
2017,07,06,06,54,13.40
2017,07,06,06,56,13.40
2017,07,06,06,57,13.40
2017,07,06,06,58,13.40
2017,07,06,06,59,13.50
2017,07,06,07,01,13.50
2017,07,06,07,02,13.50
2017,07,06,07,03,13.50
2017,07,06,07,04,13.50
2017,07,06,07,06,13.50
2017,07,06,07,07,13.50
2017,07,06,07,08,13.50
2017,07,06,07,09,13.50
2017,07,06,07,11,13.60
2017,07,06,07,12,13.60
2017,07,06,07,13,13.60
2017,07,06,07,14,13.60
2017,07,06,07,16,13.60
2017,07,06,07,17,13.60
2017,07,06,07,18,13.60
2017,07,06,07,19,13.70
2017,07,06,07,21,13.70
2017,07,06,07,22,13.70
2017,07,06,07,23,13.70
2017,07,06,07,24,13.70
2017,07,06,07,26,13.70
2017,07,06,07,27,13.80
2017,07,06,07,28,13.80
2017,07,06,07,29,13.80
2017,07,06,07,31,13.90
2017,07,06,07,32,13.90
2017,07,06,07,33,13.90
2017,07,06,07,34,14.00
2017,07,06,07,36,14.00
2017,07,06,07,37,14.10
2017,07,06,07,38,14.10
2017,07,06,07,39,14.10
2017,07,06,07,41,14.10
2017,07,06,07,42,14.10
2017,07,06,07,43,14.10
2017,07,06,07,44,14.10
2017,07,06,07,46,14.20
2017,07,06,07,47,14.20
2017,07,06,07,48,14.20
2017,07,06,07,49,14.20
2017,07,06,07,51,14.20
2017,07,06,07,52,14.30
2017,07,06,07,53,14.30
2017,07,06,07,54,14.40
2017,07,06,07,56,14.40
2017,07,06,07,57,14.40
2017,07,06,07,58,14.40
2017,07,06,07,59,14.40
2017,07,06,08,01,14.40
2017,07,06,08,02,14.50
2017,07,06,08,03,14.50
2017,07,06,08,04,14.60
2017,07,06,08,06,14.60
2017,07,06,08,07,14.60
2017,07,06,08,08,14.60
2017,07,06,08,09,14.70
2017,07,06,08,10,14.70
2017,07,06,08,11,14.70
2017,07,06,08,12,14.80
2017,07,06,08,13,14.80
2017,07,06,08,14,14.80
2017,07,06,08,15,14.80
2017,07,06,08,16,14.90
2017,07,06,08,17,14.90
2017,07,06,08,18,14.90
2017,07,06,08,19,15.00
2017,07,06,08,20,15.00
2017,07,06,08,21,15.00
2017,07,06,08,22,15.00
2017,07,06,08,23,15.10
2017,07,06,08,24,15.10
2017,07,06,08,25,15.10
2017,07,06,08,26,15.20
2017,07,06,08,27,15.20
2017,07,06,08,28,15.30
2017,07,06,08,29,15.30
2017,07,06,08,30,15.30
2017,07,06,08,31,15.30
2017,07,06,08,32,15.40
2017,07,06,08,33,15.50
2017,07,06,08,34,15.50
2017,07,06,08,35,15.60
2017,07,06,08,36,15.60
2017,07,06,08,37,15.70
2017,07,06,08,38,15.80
2017,07,06,08,39,15.80
2017,07,06,08,40,15.80
2017,07,06,08,41,15.80
2017,07,06,08,42,15.90
2017,07,06,08,43,15.90
2017,07,06,08,44,16.10
2017,07,06,08,45,16.10
2017,07,06,08,46,16.10
2017,07,06,08,47,16.20
2017,07,06,08,48,16.30
2017,07,06,08,49,16.30
2017,07,06,08,50,16.40
2017,07,06,08,51,16.40
2017,07,06,08,52,16.40
2017,07,06,08,53,16.40
2017,07,06,08,54,16.40
2017,07,06,08,55,16.40
2017,07,06,08,56,16.60
2017,07,06,08,57,16.60
2017,07,06,08,58,16.60
2017,07,06,08,59,16.70
2017,07,06,09,00,16.70
2017,07,06,09,01,16.70
2017,07,06,09,02,16.70
2017,07,06,09,03,16.70
2017,07,06,09,04,16.70
2017,07,06,09,05,16.70
2017,07,06,09,07,16.80
2017,07,06,09,08,16.80
2017,07,06,09,09,16.80
2017,07,06,09,11,16.90
2017,07,06,09,12,16.90
2017,07,06,09,13,16.90
2017,07,06,09,14,17.00
2017,07,06,09,16,17.10
2017,07,06,09,17,17.10
2017,07,06,09,18,17.10
2017,07,06,09,19,17.20
2017,07,06,09,21,17.20
2017,07,06,09,22,17.20
2017,07,06,09,23,17.30
2017,07,06,09,24,17.30
2017,07,06,09,26,17.30
2017,07,06,09,27,17.30
2017,07,06,09,28,17.30
2017,07,06,09,29,17.30
2017,07,06,09,31,17.40
2017,07,06,09,32,17.50
2017,07,06,09,33,17.60
2017,07,06,09,34,17.70
2017,07,06,09,36,17.80
2017,07,06,09,37,17.90
2017,07,06,09,38,17.90
2017,07,06,09,39,18.10
2017,07,06,09,41,18.20
2017,07,06,09,42,18.30
2017,07,06,09,43,18.30
2017,07,06,09,44,18.40
2017,07,06,09,46,18.50
2017,07,06,09,47,18.50
2017,07,06,09,48,18.50
2017,07,06,09,49,18.50
2017,07,06,09,51,18.50
2017,07,06,09,52,18.60
2017,07,06,09,53,18.60
2017,07,06,09,54,18.70
2017,07,06,09,56,18.80
2017,07,06,09,57,18.80
2017,07,06,09,58,18.90
2017,07,06,09,59,18.90
2017,07,06,10,01,18.90
2017,07,06,10,02,18.90
2017,07,06,10,03,18.90
2017,07,06,10,04,18.90
2017,07,06,10,06,19.10
2017,07,06,10,07,19.10
2017,07,06,10,08,19.20
2017,07,06,10,09,19.30
2017,07,06,10,11,19.40
2017,07,06,10,12,19.40
2017,07,06,10,13,19.50
2017,07,06,10,14,19.60
2017,07,06,10,16,19.70
2017,07,06,10,17,19.80
2017,07,06,10,18,19.90
2017,07,06,10,19,19.90
2017,07,06,10,21,20.10
2017,07,06,10,22,20.20
2017,07,06,10,23,20.20
2017,07,06,10,24,20.20
2017,07,06,10,26,20.20
2017,07,06,10,27,20.20
2017,07,06,10,28,20.20
2017,07,06,10,29,20.20
2017,07,06,10,31,20.30
2017,07,06,10,32,20.30
2017,07,06,10,33,20.40
2017,07,06,10,34,20.40
2017,07,06,10,36,20.40
2017,07,06,10,37,20.30
2017,07,06,10,38,20.30
2017,07,06,10,39,20.30
2017,07,06,10,40,20.30
2017,07,06,10,41,20.20
2017,07,06,10,42,20.20
2017,07,06,10,43,20.20
2017,07,06,10,44,20.20
2017,07,06,10,45,20.30
2017,07,06,10,46,20.30
2017,07,06,10,47,20.30
2017,07,06,10,48,20.20
2017,07,06,10,49,20.30
2017,07,06,10,50,20.30
2017,07,06,10,51,20.40
2017,07,06,10,52,20.50
2017,07,06,10,53,20.60
2017,07,06,10,54,20.80
2017,07,06,10,55,21.00
2017,07,06,10,56,21.10
2017,07,06,10,57,21.20
2017,07,06,10,58,21.20
2017,07,06,10,59,21.30
2017,07,06,11,00,21.30
2017,07,06,11,01,21.30
2017,07,06,11,02,21.40
2017,07,06,11,03,21.40
2017,07,06,11,04,21.60
2017,07,06,11,05,21.60
2017,07,06,11,06,21.60
2017,07,06,11,07,21.60
2017,07,06,11,08,21.60
2017,07,06,11,09,21.60
2017,07,06,11,10,21.40
2017,07,06,11,11,21.30
2017,07,06,11,12,21.30
2017,07,06,11,13,21.30
2017,07,06,11,14,21.30
2017,07,06,11,15,21.20
2017,07,06,11,16,21.30
2017,07,06,11,17,21.30
2017,07,06,11,18,21.30
2017,07,06,11,19,21.30
2017,07,06,11,20,21.40
2017,07,06,11,21,21.60
2017,07,06,11,22,21.60
2017,07,06,11,23,21.60
2017,07,06,11,24,21.60
2017,07,06,11,25,21.60
2017,07,06,11,26,21.40
2017,07,06,11,27,21.40
2017,07,06,11,28,21.30
2017,07,06,11,29,21.30
2017,07,06,11,30,21.30
2017,07,06,11,31,21.30
2017,07,06,11,32,21.20
2017,07,06,11,33,21.20
2017,07,06,11,34,21.20
2017,07,06,11,35,21.20
2017,07,06,11,36,21.20
2017,07,06,11,37,21.20
2017,07,06,11,38,21.10
2017,07,06,11,39,21.10
2017,07,06,11,40,21.20
2017,07,06,11,41,21.20
2017,07,06,11,42,21.30
2017,07,06,11,43,21.30
2017,07,06,11,44,21.30
2017,07,06,11,45,21.30
2017,07,06,11,46,21.30
2017,07,06,11,47,21.30
2017,07,06,11,48,21.30
2017,07,06,11,49,21.30
2017,07,06,11,50,21.30
2017,07,06,11,51,21.30
2017,07,06,11,52,21.30
2017,07,06,11,53,21.40
2017,07,06,11,54,21.40
2017,07,06,11,55,21.60
2017,07,06,11,56,21.60
2017,07,06,11,58,21.60
2017,07,06,11,59,21.70
2017,07,06,12,00,21.70
2017,07,06,12,02,21.60
2017,07,06,12,03,21.60
2017,07,06,12,04,21.60
2017,07,06,12,06,21.60
2017,07,06,12,07,21.60
2017,07,06,12,08,21.70
2017,07,06,12,09,21.70
2017,07,06,12,11,21.70
2017,07,06,12,12,21.70
2017,07,06,12,13,21.60
2017,07,06,12,14,21.60
2017,07,06,12,16,21.40
2017,07,06,12,17,21.30
2017,07,06,12,18,21.30
2017,07,06,12,19,21.30
2017,07,06,12,21,21.30
2017,07,06,12,22,21.30
2017,07,06,12,23,21.30
2017,07,06,12,24,21.30
2017,07,06,12,26,21.30
2017,07,06,12,27,21.40
2017,07,06,12,28,21.60
2017,07,06,12,29,21.60
2017,07,06,12,31,21.80
2017,07,06,12,32,21.90
2017,07,06,12,33,22.10
2017,07,06,12,34,22.20
2017,07,06,12,36,22.40
2017,07,06,12,37,22.50
2017,07,06,12,38,22.60
2017,07,06,12,39,22.60
2017,07,06,12,41,22.70
2017,07,06,12,42,22.80
2017,07,06,12,43,22.90
2017,07,06,12,44,22.90
2017,07,06,12,46,22.90
2017,07,06,12,47,22.90
2017,07,06,12,48,23.10
2017,07,06,12,49,23.10
2017,07,06,12,51,23.10
2017,07,06,12,52,22.90
2017,07,06,12,53,22.90
2017,07,06,12,54,22.90
2017,07,06,12,56,22.80
2017,07,06,12,57,22.70
2017,07,06,12,58,22.60
2017,07,06,12,59,22.60
2017,07,06,13,01,22.60
2017,07,06,13,02,22.60
2017,07,06,13,03,22.60
2017,07,06,13,04,22.60
2017,07,06,13,06,22.70
2017,07,06,13,07,22.70
2017,07,06,13,08,22.70
2017,07,06,13,09,22.70
2017,07,06,13,11,22.80
2017,07,06,13,12,22.80
2017,07,06,13,13,22.90
2017,07,06,13,14,22.90
2017,07,06,13,16,22.90
2017,07,06,13,17,22.90
2017,07,06,13,18,22.90
2017,07,06,13,19,22.90
2017,07,06,13,21,23.20
2017,07,06,13,22,23.20
2017,07,06,13,23,23.20
2017,07,06,13,24,23.30
2017,07,06,13,25,23.30
2017,07,06,13,26,23.30
2017,07,06,13,27,23.30
2017,07,06,13,28,23.30
2017,07,06,13,29,23.30
2017,07,06,13,30,23.30
2017,07,06,13,31,23.30
2017,07,06,13,32,23.30
2017,07,06,13,33,23.30
2017,07,06,13,34,23.30
2017,07,06,13,36,23.30
2017,07,06,13,37,23.30
2017,07,06,13,38,23.30
2017,07,06,13,39,23.30
2017,07,06,13,40,23.30
2017,07,06,13,41,23.30
2017,07,06,13,42,23.30
2017,07,06,13,43,23.30
2017,07,06,13,44,23.40
2017,07,06,13,45,23.40
2017,07,06,13,46,23.60
2017,07,06,13,47,23.60
2017,07,06,13,48,23.70
2017,07,06,13,49,23.70
2017,07,06,13,50,23.70
2017,07,06,13,51,23.80
2017,07,06,13,52,23.90
2017,07,06,13,53,24.10
2017,07,06,13,54,24.10
2017,07,06,13,55,24.10
2017,07,06,13,56,24.10
2017,07,06,13,57,24.10
2017,07,06,13,58,24.10
2017,07,06,13,59,24.10
2017,07,06,14,00,24.10
2017,07,06,14,01,24.10
2017,07,06,14,02,24.10
2017,07,06,14,03,24.10
2017,07,06,14,04,24.10
2017,07,06,14,05,24.10
2017,07,06,14,06,24.10
2017,07,06,14,07,23.90
2017,07,06,14,08,23.90
2017,07,06,14,09,23.90
2017,07,06,14,10,23.90
2017,07,06,14,11,23.90
2017,07,06,14,12,23.90
2017,07,06,14,13,23.90
2017,07,06,14,14,23.90
2017,07,06,14,15,23.90
2017,07,06,14,16,23.90
2017,07,06,14,17,23.90
2017,07,06,14,18,23.80
2017,07,06,14,19,23.80
2017,07,06,14,20,23.70
2017,07,06,14,21,23.70
2017,07,06,14,22,23.70
2017,07,06,14,23,23.70
2017,07,06,14,24,23.70
2017,07,06,14,25,23.70
2017,07,06,14,26,23.70
2017,07,06,14,27,23.70
2017,07,06,14,28,23.70
2017,07,06,14,29,23.70
2017,07,06,14,30,23.70
2017,07,06,14,31,23.60
2017,07,06,14,32,23.60
2017,07,06,14,33,23.60
2017,07,06,14,34,23.40
2017,07,06,14,35,23.40
2017,07,06,14,36,23.60
2017,07,06,14,37,23.60
2017,07,06,14,38,23.60
2017,07,06,14,39,23.70
2017,07,06,14,40,23.70
2017,07,06,14,41,23.70
2017,07,06,14,42,23.80
2017,07,06,14,43,23.80
2017,07,06,14,44,23.90
2017,07,06,14,45,23.90
2017,07,06,14,46,23.90
2017,07,06,14,47,23.90
2017,07,06,14,48,23.90
2017,07,06,14,49,24.10
2017,07,06,14,51,24.10
2017,07,06,14,52,24.10
2017,07,06,14,53,24.20
2017,07,06,14,54,24.20
2017,07,06,14,56,24.30
2017,07,06,14,57,24.40
2017,07,06,14,58,24.50
2017,07,06,14,59,24.50
2017,07,06,15,01,24.50
2017,07,06,15,02,24.50
2017,07,06,15,03,24.40
2017,07,06,15,04,24.40
2017,07,06,15,06,24.40
2017,07,06,15,07,24.40
2017,07,06,15,08,24.40
2017,07,06,15,09,24.40
2017,07,06,15,11,24.30
2017,07,06,15,12,24.30
2017,07,06,15,13,24.30
2017,07,06,15,14,24.30
2017,07,06,15,16,24.40
2017,07,06,15,17,24.40
2017,07,06,15,18,24.40
2017,07,06,15,19,24.50
2017,07,06,15,21,24.50
2017,07,06,15,22,24.50
2017,07,06,15,23,24.50
2017,07,06,15,24,24.50
2017,07,06,15,26,24.50
2017,07,06,15,27,24.50
2017,07,06,15,28,24.50
2017,07,06,15,29,24.40
2017,07,06,15,31,24.40
2017,07,06,15,32,24.40
2017,07,06,15,33,24.30
2017,07,06,15,34,24.20
2017,07,06,15,36,24.10
2017,07,06,15,37,24.10
2017,07,06,15,38,23.90
2017,07,06,15,39,23.80
2017,07,06,15,41,23.70
2017,07,06,15,42,23.70
2017,07,06,15,43,23.60
2017,07,06,15,44,23.40
2017,07,06,15,46,23.30
2017,07,06,15,47,23.30
2017,07,06,15,48,23.30
2017,07,06,15,49,23.30
2017,07,06,15,51,23.20
2017,07,06,15,52,23.20
2017,07,06,15,53,23.30
2017,07,06,15,54,23.30
2017,07,06,15,56,23.30
2017,07,06,15,57,23.30
2017,07,06,15,58,23.40
2017,07,06,15,59,23.40
2017,07,06,16,01,23.60
2017,07,06,16,02,23.60
2017,07,06,16,03,23.60
2017,07,06,16,04,23.60
2017,07,06,16,06,23.70
2017,07,06,16,07,23.70
2017,07,06,16,08,23.60
2017,07,06,16,09,23.60
2017,07,06,16,11,23.40
2017,07,06,16,12,23.40
2017,07,06,16,13,23.40
2017,07,06,16,14,23.30
2017,07,06,16,15,23.30
2017,07,06,16,16,23.30
2017,07,06,16,17,23.30
2017,07,06,16,18,23.20
2017,07,06,16,19,23.10
2017,07,06,16,20,23.10
2017,07,06,16,21,22.90
2017,07,06,16,22,22.90
2017,07,06,16,23,22.80
2017,07,06,16,24,22.70
2017,07,06,16,25,22.60
2017,07,06,16,26,22.50
2017,07,06,16,27,22.40
2017,07,06,16,28,22.30
2017,07,06,16,29,22.30
2017,07,06,16,30,22.20
2017,07,06,16,31,22.20
2017,07,06,16,32,22.20
2017,07,06,16,33,22.20
2017,07,06,16,34,22.20
2017,07,06,16,35,22.10
2017,07,06,16,36,22.10
2017,07,06,16,37,22.10
2017,07,06,16,38,22.10
2017,07,06,16,39,22.10
2017,07,06,16,40,22.10
2017,07,06,16,41,22.10
2017,07,06,16,42,22.20
2017,07,06,16,43,22.20
2017,07,06,16,44,22.30
2017,07,06,16,45,22.30
2017,07,06,16,46,22.40
2017,07,06,16,47,22.30
2017,07,06,16,48,22.10
2017,07,06,16,49,22.00
2017,07,06,16,50,21.90
2017,07,06,16,51,21.80
2017,07,06,16,52,21.80
2017,07,06,16,53,21.70
2017,07,06,16,54,21.70
2017,07,06,16,55,21.70
2017,07,06,16,56,21.80
2017,07,06,16,57,21.80
2017,07,06,16,58,21.80
2017,07,06,16,59,21.90
2017,07,06,17,00,21.90
2017,07,06,17,01,22.00
2017,07,06,17,02,22.10
2017,07,06,17,03,22.10
2017,07,06,17,04,22.20
2017,07,06,17,05,22.20
2017,07,06,17,06,22.20
2017,07,06,17,07,22.30
2017,07,06,17,08,22.30
2017,07,06,17,09,22.40
2017,07,06,17,10,22.30
2017,07,06,17,11,22.20
2017,07,06,17,12,22.10
2017,07,06,17,13,22.10
2017,07,06,17,14,22.10
2017,07,06,17,15,22.10
2017,07,06,17,16,22.10
2017,07,06,17,17,22.00
2017,07,06,17,18,22.00
2017,07,06,17,19,21.90
2017,07,06,17,20,22.00
2017,07,06,17,21,22.00
2017,07,06,17,22,22.00
2017,07,06,17,23,22.10
2017,07,06,17,24,22.10
2017,07,06,17,25,22.10
2017,07,06,17,26,22.20
2017,07,06,17,27,22.20
2017,07,06,17,28,22.20
2017,07,06,17,29,22.30
2017,07,06,17,30,22.30
2017,07,06,17,31,22.40
2017,07,06,17,32,22.50
2017,07,06,17,33,22.50
2017,07,06,17,34,22.60
2017,07,06,17,35,22.70
2017,07,06,17,36,22.80
2017,07,06,17,37,22.90
2017,07,06,17,39,23.10
2017,07,06,17,41,23.30
2017,07,06,17,42,23.30
2017,07,06,17,43,23.60
2017,07,06,17,44,23.70
2017,07,06,17,46,23.80
2017,07,06,17,47,23.80
2017,07,06,17,48,23.90
2017,07,06,17,49,23.90
2017,07,06,17,51,23.80
2017,07,06,17,52,23.70
2017,07,06,17,53,23.70
2017,07,06,17,54,23.70
2017,07,06,17,56,23.70
2017,07,06,17,57,23.60
2017,07,06,17,58,23.40
2017,07,06,17,59,23.30
2017,07,06,18,01,23.30
2017,07,06,18,02,23.20
2017,07,06,18,03,23.20
2017,07,06,18,04,23.20
2017,07,06,18,06,23.10
2017,07,06,18,07,23.10
2017,07,06,18,08,23.10
2017,07,06,18,09,23.10
2017,07,06,18,11,23.10
2017,07,06,18,12,23.10
2017,07,06,18,13,23.10
2017,07,06,18,14,22.90
2017,07,06,18,16,22.80
2017,07,06,18,17,22.80
2017,07,06,18,18,22.70
2017,07,06,18,19,22.70
2017,07,06,18,21,22.70
2017,07,06,18,22,22.70
2017,07,06,18,23,22.70
2017,07,06,18,24,22.60
2017,07,06,18,26,22.60
2017,07,06,18,27,22.50
2017,07,06,18,28,22.50
2017,07,06,18,29,22.50
2017,07,06,18,31,22.60
2017,07,06,18,32,22.60
2017,07,06,18,33,22.60
2017,07,06,18,34,22.70
2017,07,06,18,36,22.70
2017,07,06,18,37,22.70
2017,07,06,18,38,22.70
2017,07,06,18,39,22.60
2017,07,06,18,41,22.60
2017,07,06,18,42,22.50
2017,07,06,18,43,22.50
2017,07,06,18,44,22.50
2017,07,06,18,46,22.50
2017,07,06,18,47,22.50
2017,07,06,18,48,22.50
2017,07,06,18,49,22.50
2017,07,06,18,51,22.50
2017,07,06,18,52,22.40
2017,07,06,18,53,22.40
2017,07,06,18,54,22.40
2017,07,06,18,55,22.30
2017,07,06,18,56,22.30
2017,07,06,18,57,22.30
2017,07,06,18,58,22.30
2017,07,06,18,59,22.30
2017,07,06,19,00,22.40
2017,07,06,19,01,22.40
2017,07,06,19,02,22.40
2017,07,06,19,03,22.40
2017,07,06,19,04,22.50
2017,07,06,19,06,22.40
2017,07,06,19,07,22.40
2017,07,06,19,08,22.30
2017,07,06,19,09,22.30
2017,07,06,19,10,22.30
2017,07,06,19,11,22.30
2017,07,06,19,12,22.30
2017,07,06,19,13,22.20
2017,07,06,19,14,22.20
2017,07,06,19,15,22.20
2017,07,06,19,16,22.20
2017,07,06,19,17,22.10
2017,07,06,19,18,22.10
2017,07,06,19,19,22.00
2017,07,06,19,20,22.00
2017,07,06,19,21,21.90
2017,07,06,19,22,21.80
2017,07,06,19,23,21.70
2017,07,06,19,24,21.60
2017,07,06,19,25,21.60
2017,07,06,19,26,21.60
2017,07,06,19,27,21.40
2017,07,06,19,28,21.30